This is the latest recevied weather packets stored in our database for station/object WS2Z. If no packets are shown the sender has not sent any weather packets the latest 10 day(s).
| Time | Temp. | Humidity | Pressure | Rain* | Wind** | Luminosity | Snow |
|---|---|---|---|---|---|---|---|
| 1777558009 | 27.22° C | 71% | 1013.9 hPa | 0 mm | - | 527 W/m² | - |
| 1777557402 | 26.67° C | 74% | 1014 hPa | 0 mm | - | 508 W/m² | - |
| 1777556491 | 25.56° C | 79% | 1014.1 hPa | 0 mm | - | 459 W/m² | - |
| 1777555582 | 25° C | 85% | 1014.1 hPa | 0 mm | - | 409 W/m² | - |
| 1777554975 | 25° C | 88% | 1013.9 hPa | 0 mm | - | 336 W/m² | - |
| 1777554672 | 24.44° C | 88% | 1013.9 hPa | 0 mm | - | 261 W/m² | - |
| 1777554066 | 23.89° C | 90% | 1014 hPa | 0 mm | - | 55 W/m² | - |
| 1777552551 | 22.78° C | 94% | 1013.4 hPa | 0 mm | - | 54 W/m² | - |
| 1777552248 | 22.78° C | 94% | 1013.3 hPa | 0 mm | - | 56 W/m² | - |
| 1777551944 | 22.78° C | 95% | 1013.2 hPa | 0 mm | - | 65 W/m² | - |
| 1777551642 | 22.78° C | 96% | 1013.1 hPa | 0 mm | - | 56 W/m² | - |
| 1777551340 | 22.78° C | 96% | 1013.3 hPa | 0 mm | - | 48 W/m² | - |
| 1777550733 | 22.22° C | 97% | 1013.5 hPa | 0 mm | - | 49 W/m² | - |
| 1777549822 | 21.67° C | 97% | 1013.7 hPa | 0 mm | - | 37 W/m² | - |
| 1777548305 | 20.56° C | 96% | 1013.7 hPa | 0 mm | - | 23 W/m² | - |
| 1777548002 | 21.11° C | 96% | 1013.6 hPa | 0 mm | - | 17 W/m² | - |
| 1777547394 | 20.56° C | 97% | 1013.5 hPa | 0 mm | - | 11 W/m² | - |
| 1777546486 | 20.56° C | 96% | 1013.2 hPa | 0 mm | - | 3 W/m² | - |
| 1777545879 | 20.56° C | 96% | 1013 hPa | 0 mm | - | 1 W/m² | - |
| 1777545576 | 20.56° C | 96% | 1013.3 hPa | 0 mm | - | 0 W/m² | - |
| 1777545272 | 20° C | 96% | 1013.2 hPa | 0 mm | - | 0 W/m² | - |
| 1777544970 | 20° C | 96% | 1013.2 hPa | 0 mm | - | 0 W/m² | - |
| 1777544666 | 20° C | 96% | 1013.3 hPa | 0 mm | - | 0 W/m² | - |
| 1777544362 | 20° C | 96% | 1013.2 hPa | 0 mm | - | 0 W/m² | - |
| 1777544059 | 20° C | 96% | 1012.9 hPa | 0 mm | - | 0 W/m² | - |
* Rain latest hour (hover to see other rain measurements)
** Current wind speed in m/s (hover to see current wind gust speed)